Weather History for Culdrose, United Kingdom

Change the Weather History Date:

Sunday, February 17, 2013

  Actual Average Record
Temperature  
Mean Temperature 45 °F -  
Max Temperature 48 °F 47 °F - ()
Min Temperature 42 °F 39 °F - ()
Degree Days  
Heating Degree Days 20    
Moisture  
Dew Point 40 °F    
Average Humidity 80    
Maximum Humidity 93    
Minimum Humidity 60    
Precipitation  
Precipitation 0.00 in - - ()
Sea Level Pressure  
Sea Level Pressure 29.96 in    
Wind  
Wind Speed 15 mph ()    
Max Wind Speed 31 mph    
Max Gust Speed 44 mph    
Visibility 7.8 miles    
Events      
T = Trace of Precipitation, MM = Missing Value Source: Averaged Metar Reports

Daily Weather History Graph

Daily Weather History Graph

Search for Another Location

Airport:

Trip Planner

Search our weather history database for the weather conditions in past years. The results will help you decide how hot, cold, wet, or windy it might be!

Date:

Astronomy

Feb. 17, 2013 Rise Set
Actual Time 7:27 AM GMT 5:42 PM GMT
Civil Twilight 6:54 AM GMT 6:16 PM GMT
Nautical Twilight 6:16 AM GMT 6:54 PM GMT
Astronomical Twilight 5:39 AM GMT 7:31 PM GMT
Moon 10:24 AM GMT (2/17) 1:10 AM GMT (2/17)
Length of Visible Light 11h 21m
Length of Day
10h 15m
Waxing Crescent, 47% of the Moon is Illuminated
Feb 17
Waxing Crescent
Feb 17
First Quarter
Feb 25
Full
Mar 4
Last Quarter
Mar 11
New

Hourly Weather History & Observations

Time (GMT) Temp. Windchill Dew Point Humidity Pressure Visibility Wind Dir Wind Speed Gust Speed Precip Events Conditions
12:50 AM 44.6 °F 39.2 °F 41.0 °F 87% 30.06 in 6.2 mi SSE 10.4 mph - N/A   Partly Cloudy
1:50 AM 44.6 °F 38.4 °F 41.0 °F 87% 30.04 in 6.2 mi SSE 12.7 mph - N/A   Partly Cloudy
2:50 AM 44 °F - 40 °F 81% 30.05 in 11 mi SSE 11.5 mph - -   Scattered Clouds
2:50 AM 44.6 °F 38.8 °F 41.0 °F 87% 30.04 in 6.2 mi SSE 11.5 mph - N/A   Partly Cloudy
3:50 AM 44.6 °F 38.8 °F 41.0 °F 87% 30.01 in 6.2 mi SSE 11.5 mph - N/A   Partly Cloudy
4:50 AM 44.6 °F 38.8 °F 41.0 °F 87% 30.01 in 6.2 mi SSE 11.5 mph - N/A   Partly Cloudy
5:50 AM 45 °F - 39 °F 74% 30.03 in 11 mi SSE 13.8 mph - -   Partly Cloudy
5:50 AM 44.6 °F 38.1 °F 39.2 °F 81% 30.01 in 6.2 mi SSE 13.8 mph - N/A   Partly Cloudy
6:50 AM 44.6 °F 38.8 °F 37.4 °F 76% 30.01 in 6.2 mi SSE 11.5 mph - N/A   Partly Cloudy
7:50 AM 44.6 °F 37.4 °F 37.4 °F 76% 30.01 in 6.2 mi SSE 16.1 mph - N/A   Haze
8:50 AM 46 °F - 38 °F 64% 30.02 in 12 mi SSE 16.1 mph - -   Scattered Clouds
8:50 AM 46.4 °F 39.8 °F 37.4 °F 71% 30.01 in 6.2 mi SSE 16.1 mph - N/A   Partly Cloudy
9:50 AM 46.4 °F 38.5 °F 37.4 °F 71% 30.01 in 6.2 mi SE 21.9 mph 35.7 mph N/A   Partly Cloudy
10:50 AM 46.4 °F 38.7 °F 37.4 °F 71% 29.98 in 6.2 mi SE 20.7 mph 34.5 mph N/A   Partly Cloudy
11:50 AM 47 °F - 38 °F 60% 30.00 in 16 mi SE 23.0 mph - -   Partly Cloudy
11:50 AM 46.4 °F 38.3 °F 37.4 °F 71% 29.98 in 6.2 mi SE 23.0 mph 38.0 mph N/A   Partly Cloudy
12:50 PM 46.4 °F 38.3 °F 37.4 °F 71% 29.95 in 6.2 mi SE 23.0 mph 39.1 mph N/A   Partly Cloudy
1:50 PM 48.2 °F - 42.8 °F 82% 29.92 in 6.2 mi SE 31.1 mph - N/A   Partly Cloudy
2:50 PM 47 °F - 41 °F 72% 29.93 in 16 mi ESE 25.3 mph - -   Scattered Clouds
2:50 PM 46.4 °F 37.9 °F 41.0 °F 81% 29.92 in 6.2 mi ESE 25.3 mph 43.7 mph N/A   Partly Cloudy
3:50 PM 46.4 °F 37.2 °F 41.0 °F 81% 29.89 in 6.2 mi ESE 29.9 mph - N/A   Partly Cloudy
4:50 PM 44.6 °F 35.9 °F 41.0 °F 87% 29.89 in 6.2 mi ESE 23.0 mph 36.8 mph N/A   Partly Cloudy
5:50 PM 43 °F - 40 °F 85% 29.92 in 12 mi ESE 20.7 mph - -   Scattered Clouds
5:50 PM 42.8 °F 34.0 °F 39.2 °F 87% 29.89 in 6.2 mi ESE 20.7 mph 35.7 mph N/A   Partly Cloudy
6:50 PM 42.8 °F 34.3 °F 41.0 °F 93% 29.92 in 6.2 mi ESE 19.6 mph 31.1 mph N/A   Partly Cloudy
7:50 PM 44.6 °F 36.1 °F 41.0 °F 87% 29.92 in 6.2 mi ESE 21.9 mph 34.5 mph N/A   Partly Cloudy
8:50 PM 45 °F - 40 °F 78% 29.93 in 12 mi SE 18.4 mph - -   Scattered Clouds
8:50 PM 44.6 °F 36.9 °F 41.0 °F 87% 29.92 in 6.2 mi SE 18.4 mph - N/A   Partly Cloudy
9:50 PM 44.6 °F 36.9 °F 41.0 °F 87% 29.92 in 6.2 mi SE 18.4 mph 33.4 mph N/A   Scattered Clouds
10:50 PM 44.6 °F 37.2 °F 41.0 °F 87% 29.89 in 6.2 mi ESE 17.3 mph 28.8 mph N/A   Scattered Clouds
11:50 PM 45 °F - 40 °F 78% 29.91 in 12 mi SE 16.1 mph - -   Partly Cloudy
11:50 PM 44.6 °F 37.4 °F 41.0 °F 87% 29.89 in 6.2 mi SE 16.1 mph 28.8 mph N/A   Scattered Clouds